Showing default

NORBI, 46494

Orbit data source: Space-Track

NORBI, 46494 is a payload satellite owned by Novosibirsk SU (CIS) in SSO that was launched on Mon, 28 Sep 2020 UTC via a SOYUZ-2-1B launch vehicle from the Plesetsk Missile And Space Complex (PKMTR). Payload-class satellites include a variety of spacecraft equipped with specific instruments for various scientific and technological missions. These include communications satellites like Starlink; space stations such as the ISS; scientific satellites like the Hubble; Earth observation satellites from companies like Planet Labs, Umbra, and HawkEye 360; GPS; miniature CubeSats for education and research; and military/defense satellites.

Loading next visibility...
Identifier
46494, 2020-068J
Orbit
SSO
Last TLE update
5 hours ago
Origin
Manufacturer
Novosibirsk SU
Mission
Operational Amateur Science
Bus & Motor
CUBESAT 6U, Unknown motor
Mass
~10 kg wet, ~10 kg dry
Launch date (UTC)
2020-09-28 (5 years ago)
Launch vehicle
SOYUZ-2-1B
Launch site
Plesetsk Missile And Space Complex (PKMTR)
Object type
Payload
Rocket body
Debris
Shape & HBR
Box, Unknown HBR
Radar Cross Section
0.035 m², Small (<0.1 m²)

Expand to show TLE details & history

TLE from 5 hours ago
0 NORBI
1 46494U 20068J   25129.18632292  .00015220  00000-0  50989-3 0  9999
2 46494  97.8538 110.9542 0007924 256.5386 103.4971 15.31009549254089
Epoch: 2025-05-09T04:28Z
Definitive object data (Epoch: 2025-05-09T04:28:18.3Z)
Latitude
-0°
Longitude
176.63187°
Altitude
477.162 km
Speed
7.626 km/s
True Right ascension
07h 23m 49s
True Declination
0° 00' 00"
Sunlit
Object was in daylight at TLE epoch
Visualization TLE readout
Latitude
81.43425°
Longitude
111.249°
Altitude
491.581 km
Speed
7.623 km/s
Apparent Right ascension
05h 16m 04s
Apparent Declination
25° 15' 54"
Sunlit
Object is in daylight
Visualization observer readout
Local Sidereal Time
17:42:35
Azimuth
6.591° NNE
Elevation
-24.526°
Doppler factor
1
Orbital elements
Apogee altitude
475.196 km
Perigee altitude
464.344 km
Semi-major axis
6,847.907 km
Eccentricity
0.0007924
Inclination
97.8538°
RAAN
110.9542°
Arg. of periapsis
256.5386°
True anomaly
103.58537°
Mean anomaly
103.4971°
Eccentric anomaly
103.54124°
Mean motion
3.83007 °/min
BSTAR
0.00050989
Orbital period
93.99 mins
Loading maneuver chart data...
Loading SW <> Apogee altitude chart data...
Loading historical data...
Loading historical data...
Loading historical data...
Loading historical data...
Loading historical data...
Loading historical data...
Loading historical data...

NORBI Visibility forecast

Observer location: undefined°, undefined°

Span
Click to sort rows by Start time (UTC) header in descending order
Start Az.
Max El. time (UTC)
Max El. Az.
Max El.
End time (UTC)
End Az.
6 mins2025-05-09 11:18:14.961Z26.251° NE2025-05-09 11:21:14.961Z86.566° E34.844°2025-05-09 11:24:14.961Z170.554° S
4 mins2025-05-09 21:53:14.961Z100.897° ESE2025-05-09 21:55:14.961Z60.773° ENE16.417°2025-05-09 21:57:14.961Z26.043° NE
4 mins2025-05-09 23:26:14.961Z222.377° SW2025-05-09 23:28:14.961Z274.134° WNW22.942°2025-05-09 23:30:14.961Z314.721° NW
|